This is the latest recevied weather packets stored in our database for station/object AA4XD. If no packets are shown the sender has not sent any weather packets the latest 10 day(s).
| Time | Temp. | Humidity | Pressure | Rain* | Wind** | Luminosity | Snow |
|---|---|---|---|---|---|---|---|
| 1777385651 | 26.11° C | 68% | 1019.5 hPa | 0 mm | - | 634 W/m² | - |
| 1777385349 | 25.56° C | 67% | 1019.6 hPa | 0 mm | - | 615 W/m² | - |
| 1777385045 | 25.56° C | 67% | 1019.7 hPa | 0 mm | - | 593 W/m² | - |
| 1777384742 | 26.11° C | 66% | 1019.8 hPa | 0 mm | - | 575 W/m² | - |
| 1777384441 | 25.56° C | 69% | 1019.5 hPa | 0 mm | - | 542 W/m² | - |
| 1777384137 | 25.56° C | 70% | 1019.9 hPa | 0 mm | - | 532 W/m² | - |
| 1777383834 | 25° C | 71% | 1019.7 hPa | 0 mm | - | 515 W/m² | - |
| 1777383530 | 25° C | 70% | 1019.7 hPa | 0 mm | - | 489 W/m² | - |
| 1777383226 | 24.44° C | 72% | 1019.6 hPa | 0 mm | - | 465 W/m² | - |
| 1777382924 | 23.89° C | 74% | 1019.7 hPa | 0 mm | - | 413 W/m² | - |
| 1777382619 | 23.33° C | 74% | 1019.8 hPa | 0 mm | - | 375 W/m² | - |
| 1777382315 | 23.33° C | 74% | 1019.8 hPa | 0 mm | - | 363 W/m² | - |
| 1777382012 | 23.89° C | 73% | 1019.7 hPa | 0 mm | - | 369 W/m² | - |
| 1777381712 | 23.33° C | 75% | 1019.8 hPa | 0 mm | - | 378 W/m² | - |
| 1777381407 | 22.78° C | 76% | 1019.8 hPa | 0 mm | - | 335 W/m² | - |
| 1777381104 | 22.22° C | 77% | 1019.6 hPa | 0 mm | - | 308 W/m² | - |
| 1777380801 | 22.22° C | 79% | 1019.7 hPa | 0 mm | - | 258 W/m² | - |
| 1777380497 | 22.78° C | 76% | 1019.8 hPa | 0 mm | - | 233 W/m² | - |
| 1777380195 | 22.22° C | 77% | 1019.9 hPa | 0 mm | - | 210 W/m² | - |
| 1777379891 | 21.11° C | 80% | 1019.6 hPa | 0 mm | - | 200 W/m² | - |
| 1777379586 | 21.67° C | 78% | 1019.4 hPa | 0 mm | - | 184 W/m² | - |
| 1777379283 | 21.67° C | 79% | 1019.3 hPa | 0 mm | - | 176 W/m² | - |
| 1777378982 | 21.11° C | 80% | 1019.2 hPa | 0 mm | - | 163 W/m² | - |
| 1777378678 | 20° C | 89% | 1019 hPa | 0 mm | - | 133 W/m² | - |
| 1777378375 | 18.89° C | 97% | 1019.1 hPa | 0 mm | - | 120 W/m² | - |
* Rain latest hour (hover to see other rain measurements)
** Current wind speed in m/s (hover to see current wind gust speed)